Weather Service Report


461 
FPUS83 KFGF 300031
OPUFGF
PRAIRIE TO PINES WEATHER ROUNDUP
NATIONAL WEATHER SERVICE EASTERN NORTH DAKOTA/GRAND FORKS ND
700 PM CDT SUN MAR 29 2015

 **SATELLITE DATA USED TO AUGMENT SKY COVER AT AUTOMATED STATIONS**
 *****  WEATHER ACROSS EASTERN NORTH DAKOTA  *****
  
CITY           SKY/WX    TMP DP  RH WIND       PRES   REMARKS
GRAND FORKS    MOCLDY    52  28  39 W10       29.88S                  
6HR MIN TEMP:  50; 6HR MAX TEMP:  56;                                

GRAND FORKS AF DRIZZLE   52  30  43 NW17      29.89R                  
GRAND CITY NWS   N/A     48 N/A N/A NW5         N/A                   
BUXTON           N/A     51  25  36 W6          N/A                   
DEVILS LAKE    PTCLDY    52  30  43 NW13      29.89S                  
6HR MIN TEMP:  50; 6HR MAX TEMP:  55;                                

FARGO          CLOUDY    54  26  34 NW17      29.91S                  
6HR MIN TEMP:  51; 6HR MAX TEMP:  58;                                

WAHPETON ARPT  MOCLDY    50  27  40 NW9       29.94S                  
$$

 *****  WEATHER ACROSS CENTRAL AND WESTERN NORTH DAKOTA  *****
  
CITY           SKY/WX    TMP DP  RH WIND       PRES   REMARKS
JAMESTOWN      CLEAR     53  27  36 W13       29.93S                  
6HR MIN TEMP:  51; 6HR MAX TEMP:  58;                                

BISMARCK       SUNNY     59  28  30 NW20G29   29.97S                  
6HR MIN TEMP:  54; 6HR MAX TEMP:  60;                                

MINOT          MOSUNNY   55  30  38 NW12      29.92S                  
6HR MIN TEMP:  53; 6HR MAX TEMP:  59;                                

MINOT AFB      SUNNY     55  34  44 NW14      29.91S                  
6HR MIN TEMP:  53; 6HR MAX TEMP:  58;                                

GARRISON         N/A     57  32  38 NW17      29.94F                  
6HR MIN TEMP:  51; 6HR MAX TEMP:  58;                                

WILLISTON      MOSUNNY   59  33  37 W13G22    29.93F                  
6HR MIN TEMP:  52; 6HR MAX TEMP:  62;                                

DICKINSON      SUNNY     56  27  32 W12       29.96F                  
6HR MIN TEMP:  51; 6HR MAX TEMP:  61;                                

HETTINGER      MOSUNNY   58  28  32 W17       30.01F                  
6HR MIN TEMP:  52; 6HR MAX TEMP:  62;                                

$$

 *****  OTHER OBSERVATIONS NORTHEAST NORTH DAKOTA  *****
  
CITY           SKY/WX    TMP DP  RH WIND       PRES   REMARKS
WALHALLA         N/A     48  32  53 NW10G16   29.87S                  
LANGDON        NOT AVBL                                               
CAVALIER       FAIR      48  30  49 NW9       29.87R                  
GRAFTON        NOT AVBL                                               
CANDO          FAIR      46  32  57 NW8       29.90S                  
FORT TOTTEN    NOT AVBL                                               
ROLLA          MOCLDY    46  34  61 NW10G22   29.91R                  
RUGBY            N/A     48  36  61 NW13      29.92R                  
 ***** THE ABOVE OBSERVATIONS ARE NON NWS ARE NOT QUALITY
        CONTROLLED AND MAY MIS-REPORT RAIN FOR SNOW...
$$

 *****  OTHER OBSERVATIONS SOUTHEAST NORTH DAKOTA *****
  
CITY           SKY/WX    TMP DP  RH WIND       PRES   REMARKS
COOPERSTOWN    NOT AVBL                                               
VALLEY CITY    FAIR      50  27  40 NW10      29.93S                  
OAKES            N/A     52  32  46 NW10      29.97S                  
GWINNER        PTCLDY    54  30  40 W16         N/A                   
SHEYENNE NWR     N/A     56  24  29 NW8       29.95S                  
BUFFALO        NOT AVBL                                               
WYNDMERE         N/A     54  28  37 NW10        N/A                   
 ***** THE ABOVE OBSERVATIONS ARE NON NWS ARE NOT QUALITY
       CONTROLLED AND MAY MIS-REPORT RAIN FOR SNOW...
$$

  *****  WEATHER ACROSS NORTHERN MINNESOTA  *****     
  
CITY           SKY/WX    TMP DP  RH WIND       PRES   REMARKS
FLAG ISLAND    PTCLDY    43  27  52 NW10      29.78S                  
WARROAD        PTCLDY    46  28  49 W10G17    29.82R                  
ROSEAU         CLEAR     46  30  53 NW10      29.82S                  
HALLOCK        PTCLDY    46  34  61 NW8       29.85S                  
THF RVR FALLS  PTCLDY    46  30  53 NW9       29.87S                  
6HR MIN TEMP:  43; 6HR MAX TEMP:  48;                                

HALSTAD          N/A     52  21  30 NW16        N/A                   
FOSSTON        PTCLDY    46  28  49 CALM      29.89S                  
BAUDETTE       PTCLDY    45  27  49 NW9       29.79R                  
6HR MIN TEMP:  37; 6HR MAX TEMP:  46;                                

WASKISH        PTCLDY    43  30  61 CALM      29.82S                  
CROOKSTON      PTCLDY    48  27  43 NW13      29.89R                  
$$
  *****  WEATHER ACROSS CENTRAL AND WEST MINNESOTA  *****     
  
CITY           SKY/WX    TMP DP  RH WIND       PRES   REMARKS
BEMIDJI        PTCLDY    44  26  49 NW16G22   29.85S                  
PARK RAPIDS    CLEAR     47  22  37 NW20G31   29.87R                  
6HR MIN TEMP:  45; 6HR MAX TEMP:  53;                                

WADENA         PTCLDY    46  27  46 NW14G23   29.90R                  
DETROIT LAKES  PTCLDY    45  32  61 NW8       29.91S                  
MOORHEAD       MOCLDY    54  23  30 NW15      29.92S                  
FERGUS FALLS   MOCLDY    48  27  43 NW10G16   29.94S                  
ELBOW LAKE     FAIR      48  28  45 NW12      29.93R                  
6HR MIN TEMP:  45; 6HR MAX TEMP:  51;                                

MORRIS MN      PTCLDY    52  27  37 NW15      29.94R                  
STAPLES        MOCLDY    46  19  34 NW23G31   29.89R                  
WHEATON        PTCLDY    48  25  40 W10       29.97S                  
$$
  *****  WEATHER ELSEWHERE ACROSS MINNESOTA  *****     
  
CITY           SKY/WX    TMP DP  RH WIND       PRES   REMARKS
DULUTH         PTCLDY    44  25  47 NW18G28   29.74R                  
6HR MIN TEMP:  38; 6HR MAX TEMP:  44; 6HR PCP:  0.01;                

INTRNTL FALLS  PTCLDY    43  26  51 NW12      29.77R                  
6HR MIN TEMP:  37; 6HR MAX TEMP:  45; 6HR PCP: TRACE;                

ELY            MOCLDY    37  27  65 NW12      29.73R                  
CLOQUET        PTCLDY    45  23  42 W15       29.77R                  
BRAINERD       PTCLDY    48  24  39 NW23G31   29.85R                  
6HR MIN TEMP:  44; 6HR MAX TEMP:  51;                                

HIBBING        MOCLDY    42  25  50 NW22G31   29.77R                  
6HR MIN TEMP:  36; 6HR MAX TEMP:  45; 6HR PCP: TRACE;                

ALEXANDRIA     PTCLDY    49  24  37 NW20G30   29.92R                  
6HR MIN TEMP:  45; 6HR MAX TEMP:  51;                                

SAINT CLOUD    PTCLDY    50  27  40 NW14G25   29.87R                  
6HR MIN TEMP:  45; 6HR MAX TEMP:  52;                                

MINNEAPOLIS    PTCLDY    50  26  39 NW22G32   29.86R                  
6HR MIN TEMP:  40; 6HR MAX TEMP:  53; 6HR PCP: TRACE;                

$$

  *****  WEATHER ACROSS SOUTH DAKOTA  *****
  
CITY           SKY/WX    TMP DP  RH WIND       PRES   REMARKS
SIOUX FALLS    CLEAR     56  19  23 NW16      30.02R                  
6HR MIN TEMP:  54; 6HR MAX TEMP:  60;                                

BROOKINGS      NOT AVBL                                               
WATERTOWN      CLEAR     52  25  35 NW14      29.99S                  
6HR MIN TEMP:  50; 6HR MAX TEMP:  56;                                

HURON          CLEAR     58  19  22 NW15      30.02S                  
6HR MIN TEMP:  55; 6HR MAX TEMP:  61;                                

SISSETON         N/A     54  27  35 NW14      29.95S                  
ABERDEEN       CLEAR     58  22  24 NW14      30.00F                  
6HR MIN TEMP:  56; 6HR MAX TEMP:  60;                                

MITCHELL       CLEAR     59  19  21 NW15      30.05R                  
PIERRE         SUNNY     61  27  27 NW10      30.02F                  
6HR MIN TEMP:  54; 6HR MAX TEMP:  62;                                

MOBRIDGE       SUNNY     61  31  32 NW13      29.97F                  
RAPID CITY     CLOUDY    60  26  27 N6        30.06F                  
6HR MIN TEMP:  57; 6HR MAX TEMP:  65;                                

$$

  *****  SOME WEATHER IN NEARBY STATES *****
  
CITY           SKY/WX    TMP DP  RH WIND       PRES   REMARKS
GLASGOW MT     PTSUNNY   62  31  31 W18       29.92F                  
6HR MIN TEMP:  55; 6HR MAX TEMP:  63;                                

GREAT FALLS MT PTSUNNY   57  27  31 SW18G24   30.01S                  
6HR MIN TEMP:  50; 6HR MAX TEMP:  60;                                

CHEYENNE WY    MOSUNNY   59  19  21 S15G23    30.16S                  
6HR MIN TEMP:  53; 6HR MAX TEMP:  62;                                

SCOTTSBLUFF NE MOSUNNY   65  22  19 E3        30.10F                  
6HR MIN TEMP:  59; 6HR MAX TEMP:  66;                                

OMAHA NE       PTCLDY    60  22  23 NW17      30.05R                  
6HR MIN TEMP:  52; 6HR MAX TEMP:  63;                                

DES MOINES IA  CLEAR     60  19  20 NW17G26   29.98R                  
6HR MIN TEMP:  55; 6HR MAX TEMP:  63;                                

DAVENPORT IA   CLEAR     52  37  56 NW15G25   29.88R                  
6HR MIN TEMP:  44; 6HR MAX TEMP:  56;                                

CHICAGO IL     LGT RAIN  47  35  63 SW14G24   29.75R                  
6HR MIN TEMP:  34; 6HR MAX TEMP:  47; 6HR PCP: TRACE;                

EAU CLAIRE WI  CLEAR     48  28  46 NW15G23   29.77R                  
6HR MIN TEMP:  39; 6HR MAX TEMP:  49; 6HR PCP:  0.04;                

LA CROSSE WI   PTCLDY    52  29  41 NW24      29.78R                  
6HR MIN TEMP:  44; 6HR MAX TEMP:  53; 6HR PCP: TRACE;                

$$

  *****  SOME NATIONAL WEATHER *****
  
CITY           SKY/WX    TMP DP  RH WIND       PRES   REMARKS

Return to Home page


Western Regional Climate Center, wrcc@dri.edu